| time (UTC) | temp F | wind direction | speed knots | gust knots | rain 1hr in | rain 24hr in | rain mn in | humidity % | barometer mb |
| 20260505121830 | 61 | 266 | 4.3 | 7.0 | 0.00 | 0.00 | 0.00 | 53 | 1023.6 |
| 20260505120330 | 61 | 265 | 5.2 | 7.8 | 0.00 | 0.00 | 0.00 | 52 | 1023.5 |
| 20260505114830 | 61 | 249 | 5.2 | 7.0 | 0.00 | 0.00 | 0.00 | 53 | 1023.5 |
| 20260505113330 | 61 | 233 | 2.6 | 9.6 | 0.00 | 0.00 | 0.00 | 50 | 1023.3 |
| 20260505110331 | 61 | 240 | 5.2 | 9.6 | 0.00 | 0.00 | 0.00 | 50 | 1023.2 |
| 20260505101831 | 61 | 224 | 2.6 | 6.1 | 0.00 | 0.00 | 0.00 | 47 | 1022.8 |
| 20260505100331 | 61 | 216 | 4.3 | 7.8 | 0.00 | 0.00 | 0.00 | 46 | 1022.8 |
| 20260505093330 | 62 | 228 | 2.6 | 4.3 | 0.00 | 0.00 | 0.00 | 45 | 1022.4 |
| 20260505091832 | 62 | 211 | 4.3 | 7.8 | 0.00 | 0.00 | 0.00 | 44 | 1022.4 |
| 20260505084830 | 63 | 217 | 7.8 | 13.0 | 0.00 | 0.00 | 0.00 | 45 | 1022.1 |
| 20260505083330 | 64 | 207 | 7.8 | 11.3 | 0.00 | 0.00 | 0.00 | 44 | 1021.9 |
| 20260505081830 | 64 | 229 | 5.2 | 11.3 | 0.00 | 0.00 | 0.00 | 44 | 1021.7 |
| 20260505080331 | 64 | 199 | 5.2 | 10.4 | 0.00 | 0.00 | 0.00 | 43 | 1021.7 |
| 20260505074830 | 65 | 197 | 7.0 | 9.6 | 0.00 | 0.00 | 0.00 | 41 | 1021.7 |
| 20260505073330 | 65 | 265 | 7.0 | 11.3 | 0.00 | 0.00 | 0.00 | 40 | 1021.7 |
| 20260505071831 | 66 | 227 | 9.6 | 12.2 | 0.00 | 0.00 | 0.00 | 38 | 1021.7 |
| 20260505064830 | 67 | 195 | 3.5 | 8.7 | 0.00 | 0.00 | 0.00 | 38 | 1021.4 |
| 20260505063332 | 68 | 223 | 7.8 | 12.2 | 0.00 | 0.00 | 0.00 | 38 | 1021.1 |
| 20260505061830 | 68 | 198 | 7.0 | 8.7 | 0.00 | 0.00 | 0.00 | 35 | 1021.0 |
| 20260505054831 | 69 | 225 | 8.7 | 14.8 | 0.00 | 0.00 | 0.00 | 36 | 1020.8 |
| 20260505050332 | 72 | 203 | 6.1 | 10.4 | 0.00 | 0.00 | 0.00 | 24 | 1020.8 |
| 20260505033330 | 76 | 243 | 5.2 | 8.7 | 0.00 | 0.00 | 0.00 | 16 | 1020.3 |
| 20260505030332 | 77 | 240 | 1.7 | 2.6 | 0.00 | 0.00 | 0.00 | 14 | 1020.2 |
| 20260505024830 | 77 | 227 | 2.6 | 7.8 | 0.00 | 0.00 | 0.00 | 15 | 1020.3 |
| 20260505023331 | 74 | 215 | 2.6 | 6.1 | 0.00 | 0.00 | 0.00 | 17 | 1020.2 |
| 20260505021831 | 75 | 129 | 4.3 | 7.8 | 0.00 | 0.00 | 0.00 | 15 | 1020.3 |
| 20260505014831 | 73 | 101 | 4.3 | 7.8 | 0.00 | 0.00 | 0.00 | 15 | 1020.3 |
| 20260505013331 | 74 | 52 | 4.3 | 7.0 | 0.00 | 0.00 | 0.00 | 15 | 1020.1 |
| 20260505011831 | 76 | 56 | 2.6 | 4.3 | 0.00 | 0.00 | 0.00 | 14 | 1020.0 |
| 20260505010331 | 74 | 46 | 3.5 | 5.2 | 0.00 | 0.00 | 0.00 | 15 | 1020.0 |
| 20260505003331 | 73 | 39 | 2.6 | 4.3 | 0.00 | 0.00 | 0.00 | 16 | 1019.9 |
| 20260505000331 | 72 | 27 | 2.6 | 7.0 | 0.00 | 0.00 | 0.00 | 15 | 1019.6 |
| 20260504234832 | 71 | 15 | 4.3 | 6.1 | 0.00 | 0.00 | 0.00 | 16 | 1019.7 |
| 20260504233331 | 70 | 46 | 2.6 | 3.5 | 0.00 | 0.00 | 0.00 | 17 | 1019.7 |
| 20260504231831 | 69 | 45 | 2.6 | 6.1 | 0.00 | 0.00 | 0.00 | 18 | 1019.7 |
| 20260504230330 | 69 | 30 | 5.2 | 9.6 | 0.00 | 0.00 | 0.00 | 17 | 1019.8 |
| 20260504224831 | 69 | 37 | 2.6 | 4.3 | 0.00 | 0.00 | 0.00 | 19 | 1019.7 |
| 20260504223332 | 66 | 31 | 5.2 | 6.1 | 0.00 | 0.00 | 0.00 | 18 | 1019.4 |
| 20260504221830 | 65 | 9 | 4.3 | 7.8 | 0.00 | 0.00 | 0.00 | 21 | 1019.2 |
| 20260504220331 | 64 | 25 | 4.3 | 6.1 | 0.00 | 0.00 | 0.00 | 21 | 1019.1 |
| 20260504213330 | 61 | 33 | 5.2 | 7.8 | 0.00 | 0.00 | 0.00 | 24 | 1018.6 |
| 20260504211831 | 59 | 31 | 6.1 | 12.2 | 0.00 | 0.00 | 0.00 | 26 | 1018.4 |
| 20260504210332 | 59 | 13 | 4.3 | 11.3 | 0.00 | 0.00 | 0.00 | 27 | 1018.1 |
| 20260504203332 | 57 | 20 | 4.3 | 7.8 | 0.00 | 0.01 | 0.00 | 29 | 1017.3 |
| 20260504201830 | 57 | 30 | 1.7 | 5.2 | 0.00 | 0.02 | 0.00 | 30 | 1017.0 |
| 20260504200331 | 57 | 35 | 4.3 | 5.2 | 0.00 | 0.04 | 0.00 | 30 | 1016.5 |
| 20260504194832 | 57 | 11 | 4.3 | 7.8 | 0.00 | 0.09 | 0.00 | 30 | 1016.2 |
| 20260504193331 | 57 | 28 | 2.6 | 6.1 | 0.00 | 0.11 | 0.00 | 33 | 1015.7 |
| 20260504191832 | 57 | 29 | 2.6 | 5.2 | 0.00 | 0.14 | 0.00 | 35 | 1015.4 |
| 20260504190330 | 57 | 40 | 3.5 | 3.5 | 0.00 | 0.14 | 0.00 | 36 | 1015.0 |
| 20260504184831 | 57 | 13 | 2.6 | 6.1 | 0.00 | 0.15 | 0.00 | 37 | 1014.6 |
| 20260504183333 | 56 | 45 | 2.6 | 4.3 | 0.00 | 0.17 | 0.00 | 39 | 1014.3 |
| 20260504181831 | 56 | 31 | 4.3 | 6.1 | 0.00 | 0.17 | 0.00 | 40 | 1014.0 |
| 20260504180331 | 56 | 26 | 2.6 | 4.3 | 0.00 | 0.20 | 0.00 | 41 | 1013.7 |
| 20260504173331 | 56 | 26 | 0.9 | 1.7 | 0.00 | 0.29 | 0.00 | 41 | 1013.0 |
| 20260504171832 | 56 | 31 | 0.9 | 1.7 | 0.00 | 0.30 | 0.00 | 41 | 1012.7 |
| 20260504170331 | 56 | 40 | 0.9 | 2.6 | 0.00 | 0.32 | 0.00 | 42 | 1012.2 |
| 20260504160332 | 58 | 14 | 5.2 | 9.6 | 0.00 | 0.38 | 0.00 | 42 | 1010.7 |
| 20260504150331 | 60 | 18 | 2.6 | 7.0 | 0.00 | 0.44 | 0.00 | 45 | 1009.4 |
| 20260504140331 | 61 | 46 | 0.9 | 3.5 | 0.00 | 0.44 | 0.44 | 44 | 1008.3 |
| 20260504130332 | 64 | 37 | 1.7 | 2.6 | 0.00 | 0.44 | 0.44 | 41 | 1006.7 |